星链-32598 (STARLINK-32598)

导读

STARLINK-32598是美国SpaceX公司星链(Starlink)低轨通信星座的一员,于2024年11月21日发射。作为全球覆盖的宽带互联网卫星,它采用平板设计,搭载氪工质霍尔推进器,具备自主避撞能力,工作于Ku/Ka波段,通过相控阵技术实现全球高速通信,设计寿命约5至7年,退役后将主动离轨在大气层完全焚毁,减少空间碎片隐患。

基本信息
目录编号:
62046
目录名称:
STARLINK-32598
国际标识:
2024-216Q
轨道中心:
EARTH
卫星名称:
星链-32598
卫星全名:
星链-32598 (STARLINK-32598)
卫星状态:
在轨 (已飞行642 天)
发射日期:
2024-11-21 UTC
国别 :
美国 (US)
星等 :
--
轨道信息
数据来源 国际轨道数据
星历时间: 2026-08-25T19:14:14+0800
7小时前
查看轨道信息
半长轴: 6861.132km
偏心率: 0.0001651
轨道倾角: 43.000°
近地点辐角 183.499°
升交点赤经 22.666°
平近点角 176.585°
近地点: 481.862km
远地点: 484.128km
周期: 94.266分钟
每日圈数: 15.275983
详细信息
固有亮度:
5
最大亮度:
2.5
卫星平台:
Starlink V1.0
覆盖范围:
全球
运营商:
太空探索技术公司
运营商所在国:
美国
制造商(研发单位):
太空探索技术公司
制造商所在国:
美国
使用方式:
暂无
卫星简介
Starlink 计划是 SpaceX 推出的全球卫星互联网项目,通过发射低轨道卫星,为全球尤其是偏远地区提供高速、低延迟的互联网服务。自 2019 年起,Starlink 已部署数千颗卫星,旨在缩小全球数字鸿沟,推动互联网普及。该项目还为军事、航空等行业提供通信支持,带来广泛经济效益。
2D轨道图
3D轨道图
轨道高度分析图
轨道倾角分析图
轨道综合分析图
查看轨道综合分析图